Time,TemperatureF,DewpointF,PressureIn,WindDirection,WindDirectionDegrees,WindSpeedMPH,WindSpeedGustMPH,Humidity,HourlyPrecipIn,Conditions,Clouds,dailyrainin,SoftwareType,DateUTC
2013-03-25 00:02:00,47.0,-99.9,-100.00,NNW,341,0.0,2.0,-999,-99.99,,,-99.99,,2013-03-25 06:02:00,
2013-03-25 00:33:00,45.0,-99.9,-100.00,NNW,330,0.0,2.0,-999,-99.99,,,-99.99,,2013-03-25 06:33:00,
2013-03-25 00:43:00,45.0,-99.9,-100.00,NNW,330,0.0,2.0,-999,-99.99,,,-99.99,,2013-03-25 06:43:00,
2013-03-25 02:50:00,44.0,-99.9,-100.00,WSW,256,2.0,2.0,-999,-99.99,,,-99.99,,2013-03-25 08:50:00,
2013-03-25 03:33:00,44.0,-99.9,-100.00,WSW,256,2.0,2.0,-999,-99.99,,,-99.99,,2013-03-25 09:33:00,
2013-03-25 03:43:00,44.0,-99.9,-100.00,WSW,256,2.0,2.0,-999,-99.99,,,-99.99,,2013-03-25 09:43:00,
2013-03-25 04:30:00,43.0,-99.9,-100.00,WSW,251,3.0,6.0,-999,-99.99,,,-99.99,,2013-03-25 10:30:00,
2013-03-25 05:23:00,43.0,-99.9,-100.00,WSW,251,3.0,6.0,-999,-99.99,,,-99.99,,2013-03-25 11:23:00,
2013-03-25 05:53:00,42.0,-99.9,-100.00,SW,225,4.0,7.0,-999,-99.99,,,-99.99,,2013-03-25 11:53:00,
2013-03-25 06:03:00,42.0,-99.9,-100.00,SW,225,4.0,7.0,-999,-99.99,,,-99.99,,2013-03-25 12:03:00,
2013-03-25 06:30:00,40.0,-99.9,-100.00,SW,233,4.0,7.0,-999,-99.99,,,-99.99,,2013-03-25 12:30:00,
2013-03-25 07:23:00,40.0,-99.9,-100.00,SW,233,4.0,7.0,-999,-99.99,,,-99.99,,2013-03-25 13:23:00,
2013-03-25 08:40:00,44.0,-99.9,-100.00,WSW,240,6.0,8.0,-999,-99.99,,,-99.99,,2013-03-25 14:40:00,
2013-03-25 09:23:00,44.0,-99.9,-100.00,WSW,240,6.0,8.0,-999,-99.99,,,-99.99,,2013-03-25 15:23:00,
2013-03-25 09:33:00,44.0,-99.9,-100.00,WSW,240,6.0,8.0,-999,-99.99,,,-99.99,,2013-03-25 15:33:00,
2013-03-25 11:40:00,53.0,-99.9,-100.00,SW,229,6.0,8.0,-999,-99.99,,,-99.99,,2013-03-25 17:40:00,
2013-03-25 12:23:00,53.0,-99.9,-100.00,SW,229,6.0,8.0,-999,-99.99,,,-99.99,,2013-03-25 18:23:00,
2013-03-25 12:33:00,53.0,-99.9,-100.00,SW,229,6.0,8.0,-999,-99.99,,,-99.99,,2013-03-25 18:33:00,
2013-03-25 14:33:00,62.0,-99.9,-100.00,West,269,3.0,6.0,-999,-99.99,,,-99.99,,2013-03-25 20:33:00,
2013-03-25 14:43:00,62.0,-99.9,-100.00,West,269,3.0,6.0,-999,-99.99,,,-99.99,,2013-03-25 20:43:00,
2013-03-25 15:50:00,62.0,-99.9,-100.00,SW,218,5.0,7.0,-999,-99.99,,,-99.99,,2013-03-25 21:50:00,
2013-03-25 16:33:00,62.0,-99.9,-100.00,SW,218,5.0,7.0,-999,-99.99,,,-99.99,,2013-03-25 22:33:00,
2013-03-25 16:43:00,62.0,-99.9,-100.00,SW,218,5.0,7.0,-999,-99.99,,,-99.99,,2013-03-25 22:43:00,
2013-03-25 17:33:00,62.0,-99.9,-100.00,SSW,206,3.0,6.0,-999,-99.99,,,-99.99,,2013-03-25 23:33:00,
2013-03-25 17:43:00,62.0,-99.9,-100.00,SSW,206,3.0,6.0,-999,-99.99,,,-99.99,,2013-03-25 23:43:00,
2013-03-25 20:32:00,54.0,-99.9,-100.00,SW,231,3.0,4.0,-999,-99.99,,,-99.99,,2013-03-26 02:32:00,
2013-03-25 20:43:00,54.0,-99.9,-100.00,SW,231,3.0,4.0,-999,-99.99,,,-99.99,,2013-03-26 02:43:00,
2013-03-25 20:53:00,54.0,-99.9,-100.00,West,263,4.0,6.0,-999,-99.99,,,-99.99,,2013-03-26 02:53:00,
2013-03-25 21:02:00,53.0,-99.9,-100.00,WSW,246,4.0,5.0,-999,-99.99,,,-99.99,,2013-03-26 03:02:00,
2013-03-25 21:13:00,53.0,-99.9,-100.00,WSW,246,4.0,5.0,-999,-99.99,,,-99.99,,2013-03-26 03:13:00,
2013-03-25 21:22:00,52.0,-99.9,-100.00,WSW,245,4.0,4.0,-999,-99.99,,,-99.99,,2013-03-26 03:22:00,
2013-03-25 21:34:00,51.0,-99.9,-100.00,WSW,245,4.0,5.0,-999,-99.99,,,-99.99,,2013-03-26 03:34:00,
2013-03-25 21:43:00,51.0,-99.9,-100.00,WSW,245,4.0,5.0,-999,-99.99,,,-99.99,,2013-03-26 03:43:00,
2013-03-25 21:53:00,51.0,-99.9,-100.00,WSW,245,4.0,5.0,-999,-99.99,,,-99.99,,2013-03-26 03:53:00,
2013-03-25 22:04:00,50.0,-99.9,-100.00,WSW,243,3.0,5.0,-999,-99.99,,,-99.99,,2013-03-26 04:04:00,
2013-03-25 22:13:00,50.0,-99.9,-100.00,WSW,243,3.0,5.0,-999,-99.99,,,-99.99,,2013-03-26 04:13:00,
2013-03-25 22:23:00,50.0,-99.9,-100.00,WSW,243,3.0,5.0,-999,-99.99,,,-99.99,,2013-03-26 04:23:00,
2013-03-25 23:20:00,46.0,-99.9,-100.00,South,177,0.0,5.0,-999,-99.99,,,-99.99,,2013-03-26 05:20:00,